AV468 Weather Reports


time (UTC)temp
C
wind
direction
speed
KPH
gust
KPH
rain 1hr
cm
rain 24hr
cm
rain mn
cm
humidity
%
barometer
mb
20260506014558 26 185 3.2 11.3 0.00 0.00 0.00 79 1005.8
20260506013100 27 186 1.6 8.0 0.00 0.00 0.00 79 1005.7
20260506011604 27 186 3.2 9.7 0.00 0.00 0.00 77 1005.6
20260506004559 27 192 3.2 19.3 0.00 0.00 0.00 74 1005.5
20260506003059 28 191 4.8 16.1 0.00 0.00 0.00 74 1005.6
20260506001619 28 188 3.2 14.5 0.00 0.00 0.00 74 1005.7
20260505234601 28 200 1.6 12.9 0.00 0.00 0.00 72 1005.7
20260505233059 28 195 4.8 17.7 0.00 0.00 0.00 71 1005.5
20260505231559 28 196 6.4 20.9 0.00 0.00 0.00 71 1005.4
20260505230117 28 190 6.4 22.5 0.00 0.00 0.00 70 1005.2
20260505224600 28 178 8.0 17.7 0.00 0.00 0.00 70 1005.0
20260505223100 28 196 6.4 22.5 0.00 0.00 0.00 70 1005.2
20260505221559 28 183 8.0 20.9 0.00 0.00 0.00 70 1005.0
20260505220100 29 177 9.7 20.9 0.00 0.00 0.00 69 1005.1
20260505214608 29 174 9.7 27.4 0.00 0.00 0.00 70 1005.3
20260505213101 29 216 6.4 22.5 0.00 0.00 0.00 70 1005.5
20260505211616 29 199 8.0 24.1 0.00 0.00 0.00 70 1005.6
20260505210106 29 171 8.0 19.3 0.00 0.00 0.00 71 1005.8
20260505204559 28 165 11.3 25.7 0.00 0.00 0.00 71 1005.9
20260505203058 28 169 11.3 20.9 0.00 0.00 0.00 72 1006.0
20260505201605 29 175 4.8 16.1 0.00 0.00 0.00 70 1006.4
20260505200058 28 166 8.0 22.5 0.00 0.00 0.00 70 1006.5
20260505194558 29 204 6.4 20.9 0.00 0.00 0.00 69 1006.6
20260505193100 28 214 6.4 20.9 0.00 0.00 0.00 70 1006.9
20260505191604 28 229 4.8 16.1 0.00 0.00 0.00 70 1007.0
20260505190113 28 187 8.0 20.9 0.00 0.00 0.00 70 1007.2
20260505184609 28 229 6.4 20.9 0.00 0.00 0.00 71 1007.4
20260505183057 27 238 6.4 19.3 0.00 0.00 0.00 73 1007.5
20260505181603 26 211 6.4 24.1 0.00 0.00 0.00 75 1007.8
20260505180057 26 209 6.4 20.9 0.00 0.00 0.00 76 1007.8
20260505174600 25 212 3.2 16.1 0.00 0.00 0.00 79 1008.2
20260505173101 25 178 6.4 24.1 0.00 0.00 0.00 80 1008.1
20260505171558 25 232 1.6 16.1 0.00 0.00 0.00 82 1008.2
20260505170109 24 204 6.4 24.1 0.00 0.00 0.00 82 1008.2
20260505164559 24 236 3.2 17.7 0.00 0.00 0.00 83 1008.2
20260505163107 23 197 3.2 16.1 0.00 0.00 0.00 85 1008.2
20260505161559 23 231 6.4 22.5 0.00 0.00 0.00 85 1008.2
20260505153109 22 196 4.8 17.7 0.00 0.00 0.00 87 1008.1
20260505151557 22 182 3.2 17.7 0.00 0.00 0.00 87 1008.2
20260505150114 22 183 3.2 16.1 0.00 0.00 0.00 88 1008.1
20260505140117 22 208 4.8 16.1 0.00 0.00 0.00 88 1007.6
20260505130110 21 203 8.0 19.3 0.00 0.00 0.00 88 1007.2
20260505124617 21 211 4.8 12.9 0.00 0.00 0.00 88 1007.1
20260505123118 21 0 6.4 17.7 0.00 0.00 0.00 89 1006.8
20260505121600 21 192 3.2 20.9 0.00 0.00 0.00 89 1006.6
20260505120059 21 198 4.8 17.7 0.00 0.00 0.00 89 1006.6
20260505114602 21 192 6.4 17.7 0.00 0.00 0.00 89 1006.2
20260505113058 21 219 6.4 17.7 0.00 0.00 0.00 88 1006.3
20260505111600 21 188 8.0 19.3 0.00 0.00 0.00 88 1006.2
20260505101603 21 194 1.6 14.5 0.00 0.00 0.00 87 1006.4
20260505100110 21 192 3.2 12.9 0.00 0.00 0.00 87 1006.7
20260505094604 21 195 3.2 16.1 0.00 0.00 0.00 87 1006.7
20260505093058 21 209 4.8 16.1 0.00 0.00 0.00 87 1006.8
20260505091559 21 203 4.8 20.9 0.00 0.00 0.00 87 1006.9
20260505090109 21 193 9.7 24.1 0.00 0.00 0.00 87 1006.9
20260505084558 21 188 4.8 22.5 0.00 0.00 0.00 87 1007.0
20260505083110 21 201 6.4 20.9 0.00 0.00 0.00 86 1007.0
20260505081601 21 188 4.8 22.5 0.00 0.00 0.00 86 1007.4
20260505080058 21 188 4.8 20.9 0.00 0.00 0.00 86 1007.4
20260505074559 21 200 4.8 16.1 0.00 0.00 0.00 86 1007.4
20260505073101 21 197 6.4 22.5 0.00 0.00 0.00 86 1007.6
20260505071559 21 184 6.4 22.5 0.00 0.00 0.00 86 1007.9
20260505070101 22 192 8.0 33.8 0.00 0.00 0.00 85 1008.1
20260505064600 22 197 6.4 29.0 0.00 0.00 0.00 85 1008.3
20260505063104 22 220 6.4 29.0 0.00 0.00 0.00 85 1008.4
20260505061604 22 192 8.0 22.5 0.00 0.00 0.00 85 1008.5
20260505060058 22 182 8.0 24.1 0.00 0.00 0.00 84 1008.6
20260505054558 22 0 6.4 19.3 0.00 0.00 0.00 84 1008.6
20260505053103 22 201 9.7 24.1 0.00 0.00 0.00 84 1008.5
20260505051600 22 234 4.8 27.4 0.00 0.00 0.00 84 1008.6
20260505050128 22 196 6.4 25.7 0.00 0.00 0.00 83 1008.6
20260505041610 23 190 1.6 14.5 0.00 0.00 0.00 82 1008.6
20260505034601 23 173 1.6 12.9 0.00 0.00 0.00 80 1008.5
20260505033059 23 185 4.8 19.3 0.00 0.00 0.00 79 1008.6
20260505031601 23 211 6.4 22.5 0.00 0.00 0.00 78 1008.5
20260505030058 23 182 6.4 22.5 0.00 0.00 0.00 77 1008.2
20260505024558 24 196 4.8 17.7 0.00 0.00 0.00 76 1008.3
20260505023058 24 197 3.2 17.7 0.00 0.00 0.00 73 1008.2
20260505021600 25 188 6.4 20.9 0.00 0.00 0.00 72 1008.2
20260505020100 25 193 6.4 19.3 0.00 0.00 0.00 71 1008.0